Location: Brantley
(31.5822°N, 86.2569°W)
Time: 12:12:22
(UTC+00:00)

Vanguard 2 - Pass Details

Date: 20 February 2026
Orbit: 553 x 2896 km, 32.9° (Epoch: 17 March)

Event Time Altitude Azimuth Distance (km) Brightness Sun altitude
Rises 10:46:31 0° 250° (WSW) 4,511 - -21.0°
Reaches altitude 10° 10:50:10 10° 249° (WSW) 3,156 - -20.2°
Exits shadow 10:53:54 29° 245° (WSW) 1,766 8.8 -19.4°
Maximum altitude 10:57:23 75° 166° (SSE) 863 7.7 -18.6°
Drops below altitude 10° 11:02:02 10° 81° (E) 2,072 11.0 -17.7°
Sets 11:04:01 0° 79° (E) 2,862 12.0 -17.2°
